Powrót do katalogu

CZ-3C DEB

AktywnyGTO
NORAD 40854·DEBRIS·🇨🇳 China

Wystrzelony Feb 24, 2012 z Xichang Satellite Launch Center

Loading…

TLE

NieaktualneSource: Space-Track

Epoka: Sep 13, 2026, 13:08 UTC

1 40854U 12008U   26256.54754958  .00000282  00000-0  71315-2 0  9991
2 40854  20.1357 216.3446 7004947 131.6970 313.8439  2.41776967  1804

Śledź CZ-3C DEB w czasie rzeczywistym z AllMySat

Download on the App Store